DECAYED

STARLINK-5138, 54078 (Decayed)

Orbit data source: Space-Track

STARLINK-5138, 54078 was a payload satellite owned by SpaceX/Seattle (US) in LEO that was launched on Thu, 20 Oct 2022 UTC via an FALCON 9 launch vehicle from the Air Force Eastern Test Range (AFETR). Payload-class satellites include a variety of spacecraft equipped with specific instruments for various scientific and technological missions. These include communications satellites like Starlink; space stations such as the ISS; scientific satellites like the Hubble; Earth observation satellites from companies like Planet Labs, Umbra, and HawkEye 360; GPS; miniature CubeSats for education and research; and military/defense satellites.

Not visible in the next 10 days
Identifier
54078, 2022-136AD
Orbit
Decayed
Country
Flag of USUS
Related business
Manufacturer
SpaceX/Seattle
Mission
Decayed Commercial Communications
Bus & Motor
STARLINK, Unknown motor
Mass
305 kg wet, ~290 kg dry
Launch date (UTC)
2022-10-20 (4 years ago)
Launch vehicle
FALCON 9
Launch site
Air Force Eastern Test Range (AFETR)
Object type
Payload
Rocket body
Debris
Shape & HBR
Box + 1 Pan, 10.1 m
Radar Cross Section
13.562 m², Large (>1 m²)

Expand to show TLE details & history
Last TLE update: 7 months ago

TLE from 7 months ago
0 STARLINK-5138
1 54078U 22136AD  25327.67897032  .09541434  12462-4  39915-3 0  9998
2 54078  53.1982  52.6087 0002251 283.1043  76.9756 16.43810513171497
Epoch: 2025-11-23T16:17Z
TLE epoch observation values (Epoch: 2025-11-23T16:17:43.035Z)
Latitude
-0.00003°
Longitude
105.28953°
Altitude
156.302 km
Speed
7.814 km/s
True Right ascension
03h 30m 26s
True Declination
0° 00' 00"
Sunlit
Object was in full shadow at epoch
Visualization orbit readout
Latitude
Unknown
Longitude
Unknown
Altitude
Unknown
Speed
Unknown
Apparent Right ascension
Unknown
Apparent Declination
Unknown
Sunlit
N/A
Visualization observer readout
Local Sidereal Time
21:36:57
Azimuth
Unknown
Elevation
Unknown
Doppler factor
Unknown
Orbital elements
Apogee altitude
157.419 km
Perigee altitude
154.477 km
Semi-major axis
6,534.085 km
Eccentricity
0.00023
Inclination
53.1982°
RAAN
52.6087°
Arg. of periapsis
283.1043°
True anomaly
77.00073°
Mean anomaly
76.9756°
Eccentric anomaly
76.98817°
Mean motion
4.10928 °/min
Orbital period
87.61 mins
BSTAR
0.00039915
Loading maneuver chart data...
Computing Atmospheric mass density...
Loading historical data...
Loading historical data...
Loading historical data...
Loading historical data...
Loading historical data...
Loading historical data...
Loading historical data...

Documentation

Showing up to 5 results
|